Time,TemperatureF,DewpointF,PressureIn,WindDirection,WindDirectionDegrees,WindSpeedMPH,WindSpeedGustMPH,Humidity,HourlyPrecipIn,Conditions,Clouds,dailyrainin,SoftwareType,DateUTC
2013-06-04 00:01:00,64.9,63.7,29.99,ENE,68,0.0,0.0,96,0.00,,---,0.00,VWS V14.00,2013-06-04 04:01:00,
2013-06-04 00:02:00,64.9,63.7,29.99,ENE,68,0.0,0.0,96,0.00,,---,0.00,VWS V14.00,2013-06-04 04:02:00,
2013-06-04 00:07:00,64.9,63.7,29.99,ENE,68,0.0,0.0,96,0.00,,---,0.00,VWS V14.00,2013-06-04 04:07:00,
2013-06-04 00:12:00,64.9,63.7,30.00,ENE,68,0.0,0.0,96,0.00,,---,0.00,VWS V14.00,2013-06-04 04:12:00,
2013-06-04 00:17:00,64.9,63.7,30.00,ENE,68,0.0,0.0,96,0.00,,---,0.00,VWS V14.00,2013-06-04 04:17:00,
2013-06-04 00:22:00,64.9,63.7,30.00,ENE,68,0.0,0.0,96,0.00,,---,0.00,VWS V14.00,2013-06-04 04:22:00,
2013-06-04 00:27:00,64.9,63.7,30.00,ENE,68,0.0,0.0,96,0.00,,---,0.00,VWS V14.00,2013-06-04 04:27:00,
2013-06-04 00:32:00,64.9,63.7,30.00,ENE,68,0.0,0.0,96,0.00,,---,0.00,VWS V14.00,2013-06-04 04:32:00,
2013-06-04 00:37:00,64.9,63.7,30.00,ENE,68,0.0,0.0,96,0.00,,---,0.00,VWS V14.00,2013-06-04 04:37:00,
2013-06-04 00:42:00,64.9,63.7,30.00,ENE,68,0.0,0.0,96,0.00,,---,0.00,VWS V14.00,2013-06-04 04:42:00,
2013-06-04 00:47:00,64.9,63.7,30.00,ENE,68,0.0,0.0,96,0.00,,---,0.00,VWS V14.00,2013-06-04 04:47:00,
2013-06-04 00:52:00,64.9,63.7,30.00,ENE,68,0.0,0.0,96,0.00,,---,0.00,VWS V14.00,2013-06-04 04:52:00,
2013-06-04 00:57:00,64.9,63.7,30.00,ENE,68,0.0,0.0,96,0.00,,---,0.00,VWS V14.00,2013-06-04 04:57:00,
2013-06-04 01:02:00,64.9,63.7,30.00,ENE,68,0.0,0.0,96,0.00,,---,0.00,VWS V14.00,2013-06-04 05:02:00,
2013-06-04 01:07:00,64.9,63.7,30.00,ENE,68,0.0,0.0,96,0.00,,---,0.00,VWS V14.00,2013-06-04 05:07:00,
2013-06-04 01:12:00,64.9,63.7,30.00,ENE,68,0.0,0.0,96,0.00,,---,0.00,VWS V14.00,2013-06-04 05:12:00,
2013-06-04 01:17:00,64.9,63.7,30.01,ENE,68,0.0,0.0,96,0.00,,---,0.00,VWS V14.00,2013-06-04 05:17:00,
2013-06-04 01:22:00,64.9,63.7,30.01,ENE,68,0.0,0.0,96,0.00,,---,0.00,VWS V14.00,2013-06-04 05:22:00,
2013-06-04 01:27:00,64.7,63.5,30.01,ENE,68,0.0,0.0,96,0.00,,---,0.00,VWS V14.00,2013-06-04 05:27:00,
2013-06-04 01:32:00,64.7,63.5,30.00,ENE,68,0.0,0.0,96,0.00,,---,0.00,VWS V14.00,2013-06-04 05:32:00,
2013-06-04 01:37:00,64.7,63.5,30.00,ENE,68,0.0,0.0,96,0.00,,---,0.00,VWS V14.00,2013-06-04 05:37:00,
2013-06-04 01:42:00,64.5,63.3,30.00,ENE,68,0.0,0.0,96,0.00,,---,0.00,VWS V14.00,2013-06-04 05:42:00,
2013-06-04 01:48:00,64.5,63.3,30.00,ENE,68,0.0,0.0,96,0.00,,---,0.00,VWS V14.00,2013-06-04 05:48:00,
2013-06-04 01:53:00,64.2,63.0,29.99,ENE,68,0.0,0.0,96,0.00,,---,0.00,VWS V14.00,2013-06-04 05:53:00,
2013-06-04 01:58:00,64.2,63.0,30.00,ENE,68,0.0,0.0,96,0.00,,---,0.00,VWS V14.00,2013-06-04 05:58:00,
2013-06-04 02:03:00,64.0,63.1,30.00,ENE,68,0.0,0.0,97,0.00,,---,0.00,VWS V14.00,2013-06-04 06:03:00,
2013-06-04 02:08:00,64.0,63.1,30.00,ENE,68,0.0,0.0,97,0.00,,---,0.00,VWS V14.00,2013-06-04 06:08:00,
2013-06-04 02:13:00,64.0,63.1,30.00,ENE,68,0.0,0.0,97,0.00,,---,0.00,VWS V14.00,2013-06-04 06:13:00,
2013-06-04 02:18:00,64.0,63.1,29.99,ENE,68,0.0,0.0,97,0.00,,---,0.00,VWS V14.00,2013-06-04 06:18:00,
2013-06-04 02:23:00,63.8,62.9,29.99,ENE,68,0.0,0.0,97,0.00,,---,0.00,VWS V14.00,2013-06-04 06:23:00,
2013-06-04 02:28:00,63.6,62.7,29.99,ENE,68,0.0,0.0,97,0.00,,---,0.00,VWS V14.00,2013-06-04 06:28:00,
2013-06-04 02:33:00,63.6,62.7,29.99,ENE,68,0.0,0.0,97,0.00,,---,0.00,VWS V14.00,2013-06-04 06:33:00,
2013-06-04 02:38:00,63.3,62.4,29.99,ENE,68,0.0,0.0,97,0.00,,---,0.00,VWS V14.00,2013-06-04 06:38:00,
2013-06-04 02:43:00,63.3,62.4,30.00,ENE,68,0.0,0.0,97,0.00,,---,0.00,VWS V14.00,2013-06-04 06:43:00,
2013-06-04 02:48:00,63.1,62.2,30.00,ENE,68,0.0,0.0,97,0.00,,---,0.00,VWS V14.00,2013-06-04 06:48:00,
2013-06-04 02:53:00,62.7,61.8,30.00,ENE,68,0.0,0.0,97,0.00,,---,0.00,VWS V14.00,2013-06-04 06:53:00,
2013-06-04 02:58:00,62.6,61.7,29.99,ENE,68,0.0,0.0,97,0.00,,---,0.00,VWS V14.00,2013-06-04 06:58:00,
2013-06-04 03:03:00,62.4,61.5,29.99,ENE,68,0.0,0.0,97,0.00,,---,0.00,VWS V14.00,2013-06-04 07:03:00,
2013-06-04 03:08:00,62.2,61.3,29.99,ENE,68,0.0,0.0,97,0.00,,---,0.00,VWS V14.00,2013-06-04 07:08:00,
2013-06-04 03:13:00,62.0,61.1,29.99,ENE,68,0.0,0.0,97,0.00,,---,0.00,VWS V14.00,2013-06-04 07:13:00,
2013-06-04 03:18:00,61.8,60.9,29.99,ENE,68,0.0,0.0,97,0.00,,---,0.00,VWS V14.00,2013-06-04 07:18:00,
2013-06-04 03:23:00,61.7,60.8,29.99,ENE,68,0.0,0.0,97,0.00,,---,0.00,VWS V14.00,2013-06-04 07:23:00,
2013-06-04 03:28:00,61.5,60.6,29.99,ENE,68,0.0,0.0,97,0.00,,---,0.00,VWS V14.00,2013-06-04 07:28:00,
2013-06-04 03:33:00,61.5,60.9,29.99,ENE,68,0.0,0.0,98,0.00,,---,0.00,VWS V14.00,2013-06-04 07:33:00,
2013-06-04 03:38:00,61.1,60.5,29.99,ENE,68,0.0,0.0,98,0.00,,---,0.00,VWS V14.00,2013-06-04 07:38:00,
2013-06-04 03:43:00,60.9,60.3,29.99,ENE,68,0.0,0.0,98,0.00,,---,0.00,VWS V14.00,2013-06-04 07:43:00,
2013-06-04 03:48:00,60.9,60.0,29.99,ENE,68,0.0,0.0,97,0.00,,---,0.00,VWS V14.00,2013-06-04 07:48:00,
2013-06-04 03:53:00,60.6,60.0,29.99,ENE,68,0.0,0.0,98,0.00,,---,0.00,VWS V14.00,2013-06-04 07:53:00,
2013-06-04 03:58:00,60.6,60.0,29.98,ENE,68,0.0,0.0,98,0.00,,---,0.00,VWS V14.00,2013-06-04 07:58:00,
2013-06-04 04:03:00,60.4,59.8,29.98,ENE,68,0.0,0.0,98,0.00,,---,0.00,VWS V14.00,2013-06-04 08:03:00,
2013-06-04 04:08:00,60.0,59.4,29.98,ENE,68,0.0,0.0,98,0.00,,---,0.00,VWS V14.00,2013-06-04 08:08:00,
2013-06-04 04:13:00,60.0,59.7,29.99,ENE,68,0.0,0.0,99,0.00,,---,0.00,VWS V14.00,2013-06-04 08:13:00,
2013-06-04 04:18:00,59.7,59.4,29.99,ENE,68,0.0,0.0,99,0.00,,---,0.00,VWS V14.00,2013-06-04 08:18:00,
2013-06-04 04:23:00,59.5,58.9,29.99,ENE,68,0.0,0.0,98,0.00,,---,0.00,VWS V14.00,2013-06-04 08:23:00,
2013-06-04 04:28:00,59.5,59.2,29.99,ENE,68,0.0,0.0,99,0.00,,---,0.00,VWS V14.00,2013-06-04 08:28:00,
2013-06-04 04:33:00,59.3,59.0,29.99,ENE,68,0.0,0.0,99,0.00,,---,0.00,VWS V14.00,2013-06-04 08:33:00,
2013-06-04 04:38:00,59.1,58.8,29.99,ENE,68,0.0,0.0,99,0.00,,---,0.00,VWS V14.00,2013-06-04 08:38:00,
2013-06-04 04:43:00,58.8,58.5,29.99,ENE,68,0.0,0.0,99,0.00,,---,0.00,VWS V14.00,2013-06-04 08:43:00,
2013-06-04 04:48:00,58.8,58.5,29.99,ENE,68,0.0,0.0,99,0.00,,---,0.00,VWS V14.00,2013-06-04 08:48:00,
2013-06-04 04:53:00,58.8,58.5,29.99,ENE,68,0.0,0.0,99,0.00,,---,0.00,VWS V14.00,2013-06-04 08:53:00,
2013-06-04 04:58:00,58.8,58.5,29.99,ENE,68,0.0,0.0,99,0.00,,---,0.00,VWS V14.00,2013-06-04 08:58:00,
2013-06-04 05:03:00,58.8,58.5,29.99,ENE,68,0.0,0.0,99,0.00,,---,0.00,VWS V14.00,2013-06-04 09:03:00,
2013-06-04 05:08:00,58.6,58.3,30.00,ENE,68,0.0,0.0,99,0.00,,---,0.00,VWS V14.00,2013-06-04 09:08:00,
2013-06-04 05:13:00,58.4,58.1,30.00,ENE,68,0.0,0.0,99,0.00,,---,0.00,VWS V14.00,2013-06-04 09:13:00,
2013-06-04 05:19:00,58.2,57.9,30.00,ENE,68,0.0,0.0,99,0.00,,---,0.00,VWS V14.00,2013-06-04 09:19:00,
2013-06-04 05:24:00,58.2,57.9,30.00,ENE,68,0.0,0.0,99,0.00,,---,0.00,VWS V14.00,2013-06-04 09:24:00,
2013-06-04 05:29:00,57.9,57.6,30.00,ENE,68,0.0,0.0,99,0.00,,---,0.00,VWS V14.00,2013-06-04 09:29:00,
2013-06-04 05:34:00,57.9,57.6,30.00,ENE,68,0.0,0.0,99,0.00,,---,0.00,VWS V14.00,2013-06-04 09:34:00,
2013-06-04 05:39:00,57.9,57.6,30.00,ENE,68,0.0,0.0,99,0.00,,---,0.00,VWS V14.00,2013-06-04 09:39:00,
2013-06-04 05:44:00,57.7,57.7,30.00,ENE,68,0.0,0.0,100,0.00,,---,0.00,VWS V14.00,2013-06-04 09:44:00,
2013-06-04 05:49:00,57.7,57.7,30.01,ENE,68,0.0,0.0,100,0.00,,---,0.00,VWS V14.00,2013-06-04 09:49:00,
2013-06-04 05:54:00,57.5,57.5,30.01,ENE,68,0.0,0.0,100,0.00,,---,0.00,VWS V14.00,2013-06-04 09:54:00,
2013-06-04 05:59:00,57.5,57.5,30.01,SSW,202,0.0,0.0,100,0.00,,---,0.00,VWS V14.00,2013-06-04 09:59:00,
2013-06-04 06:04:00,57.3,57.3,30.02,SSW,202,0.0,0.0,100,0.00,,---,0.00,VWS V14.00,2013-06-04 10:04:00,
2013-06-04 06:09:00,57.3,57.3,30.02,SSW,202,0.0,0.0,100,0.00,,---,0.00,VWS V14.00,2013-06-04 10:09:00,
2013-06-04 06:14:00,57.3,57.3,30.02,SSW,202,0.0,0.0,100,0.00,,---,0.00,VWS V14.00,2013-06-04 10:14:00,
2013-06-04 06:19:00,57.3,57.3,30.02,SSW,202,0.0,0.0,100,0.00,,---,0.00,VWS V14.00,2013-06-04 10:19:00,
2013-06-04 06:24:00,57.3,57.3,30.02,SSW,202,0.0,0.0,100,0.00,,---,0.00,VWS V14.00,2013-06-04 10:24:00,
2013-06-04 06:29:00,57.2,57.2,30.02,SSW,202,0.0,0.0,100,0.00,,---,0.00,VWS V14.00,2013-06-04 10:29:00,
2013-06-04 06:34:00,57.0,57.0,30.02,SSW,202,0.0,0.0,100,0.00,,---,0.00,VWS V14.00,2013-06-04 10:34:00,
2013-06-04 06:39:00,57.0,57.0,30.02,SSW,202,0.0,0.0,100,0.00,,---,0.00,VWS V14.00,2013-06-04 10:39:00,
2013-06-04 06:44:00,57.3,57.3,30.03,SSW,202,0.0,0.0,100,0.00,,---,0.00,VWS V14.00,2013-06-04 10:44:00,
2013-06-04 06:49:00,57.3,57.3,30.03,SSW,202,0.0,0.0,100,0.00,,---,0.00,VWS V14.00,2013-06-04 10:49:00,
2013-06-04 06:54:00,57.3,57.3,30.03,SSW,202,0.0,0.0,100,0.00,,---,0.00,VWS V14.00,2013-06-04 10:54:00,
2013-06-04 06:59:00,57.7,57.7,30.03,SSW,202,0.0,0.0,100,0.00,,---,0.00,VWS V14.00,2013-06-04 10:59:00,
2013-06-04 07:04:00,57.7,57.7,30.03,SSW,202,0.0,0.0,100,0.00,,---,0.00,VWS V14.00,2013-06-04 11:04:00,
2013-06-04 07:09:00,57.9,57.9,30.03,SSW,202,0.0,0.0,100,0.00,,---,0.00,VWS V14.00,2013-06-04 11:09:00,
2013-06-04 07:14:00,58.2,58.2,30.03,SSW,202,0.0,0.0,100,0.00,,---,0.00,VWS V14.00,2013-06-04 11:14:00,
2013-06-04 07:19:00,58.8,58.8,30.04,SSW,202,0.0,0.0,100,0.00,,---,0.00,VWS V14.00,2013-06-04 11:19:00,
2013-06-04 07:24:00,58.8,58.8,30.04,SSW,202,0.0,0.0,100,0.00,,---,0.00,VWS V14.00,2013-06-04 11:24:00,
2013-06-04 07:29:00,59.5,59.5,30.04,SSW,202,0.0,0.0,100,0.00,,---,0.00,VWS V14.00,2013-06-04 11:29:00,
2013-06-04 07:34:00,60.0,60.0,30.03,SSW,202,0.0,0.0,100,0.00,,---,0.00,VWS V14.00,2013-06-04 11:34:00,
2013-06-04 07:39:00,60.2,60.2,30.04,SSW,202,0.0,0.0,100,0.00,,---,0.00,VWS V14.00,2013-06-04 11:39:00,
2013-06-04 07:44:00,60.8,60.8,30.04,SSW,202,0.0,0.0,100,0.00,,---,0.00,VWS V14.00,2013-06-04 11:44:00,
2013-06-04 07:49:00,61.1,61.1,30.04,SSW,202,0.0,0.0,100,0.00,,---,0.00,VWS V14.00,2013-06-04 11:49:00,
2013-06-04 07:54:00,61.5,61.5,30.04,SSW,202,0.0,0.0,100,0.00,,---,0.00,VWS V14.00,2013-06-04 11:54:00,
2013-06-04 07:59:00,62.4,62.4,30.04,SSW,202,0.0,0.0,100,0.00,,---,0.00,VWS V14.00,2013-06-04 11:59:00,
2013-06-04 08:04:00,62.9,62.9,30.04,SSW,202,0.0,0.0,100,0.00,,---,0.00,VWS V14.00,2013-06-04 12:04:00,
2013-06-04 08:09:00,63.3,63.3,30.05,SSW,202,0.0,0.0,100,0.00,,---,0.00,VWS V14.00,2013-06-04 12:09:00,
2013-06-04 08:14:00,64.2,64.2,30.04,SSW,202,0.0,0.0,100,0.00,,---,0.00,VWS V14.00,2013-06-04 12:14:00,
2013-06-04 08:19:00,64.5,64.5,30.04,SSW,202,0.0,0.0,100,0.00,,---,0.00,VWS V14.00,2013-06-04 12:19:00,
2013-06-04 08:24:00,64.9,64.9,30.05,SSW,202,0.0,0.0,100,0.00,,---,0.00,VWS V14.00,2013-06-04 12:24:00,
2013-06-04 08:29:00,65.8,65.8,30.05,South,180,0.0,0.0,100,0.00,,---,0.00,VWS V14.00,2013-06-04 12:29:00,
2013-06-04 08:34:00,66.7,66.7,30.05,SSW,202,0.0,0.0,100,0.00,,---,0.00,VWS V14.00,2013-06-04 12:34:00,
2013-06-04 08:39:00,67.6,67.6,30.05,SSW,202,0.0,0.0,100,0.00,,---,0.00,VWS V14.00,2013-06-04 12:39:00,
2013-06-04 08:44:00,68.3,67.7,30.05,SSW,202,0.0,0.0,98,0.00,,---,0.00,VWS V14.00,2013-06-04 12:44:00,
2013-06-04 08:49:00,68.9,68.0,30.05,SSW,202,0.0,0.0,97,0.00,,---,0.00,VWS V14.00,2013-06-04 12:49:00,
2013-06-04 08:54:00,69.4,68.5,30.05,South,180,0.0,0.0,97,0.00,,---,0.00,VWS V14.00,2013-06-04 12:54:00,
2013-06-04 08:59:00,70.3,68.5,30.05,NE,45,0.0,0.0,94,0.00,,---,0.00,VWS V14.00,2013-06-04 12:59:00,
2013-06-04 09:04:00,71.2,69.4,30.05,ENE,68,0.0,0.0,94,0.00,,---,0.00,VWS V14.00,2013-06-04 13:04:00,
2013-06-04 09:09:00,71.7,69.6,30.06,ENE,68,0.0,0.0,93,0.00,,---,0.00,VWS V14.00,2013-06-04 13:09:00,
2013-06-04 09:15:00,72.6,69.2,30.06,ENE,68,0.0,0.0,89,0.00,,---,0.00,VWS V14.00,2013-06-04 13:15:00,
2013-06-04 09:20:00,73.0,68.9,30.06,SSE,158,0.2,0.2,87,0.00,,---,0.00,VWS V14.00,2013-06-04 13:20:00,
2013-06-04 09:25:00,73.5,69.1,30.06,NE,45,0.0,0.2,86,0.00,,---,0.00,VWS V14.00,2013-06-04 13:25:00,
2013-06-04 09:30:00,73.4,69.3,30.06,NE,45,0.0,0.2,87,0.00,,---,0.00,VWS V14.00,2013-06-04 13:30:00,
2013-06-04 09:35:00,74.3,70.5,30.06,SW,225,0.0,0.0,88,0.00,,---,0.00,VWS V14.00,2013-06-04 13:35:00,
2013-06-04 09:40:00,74.4,69.9,30.06,SW,225,0.0,0.0,86,0.00,,---,0.00,VWS V14.00,2013-06-04 13:40:00,
2013-06-04 09:45:00,75.0,70.5,30.07,West,270,0.0,0.0,86,0.00,,---,0.00,VWS V14.00,2013-06-04 13:45:00,
2013-06-04 09:50:00,75.7,70.9,30.07,SSE,158,0.0,0.0,85,0.00,,---,0.00,VWS V14.00,2013-06-04 13:50:00,
2013-06-04 09:55:00,76.1,71.3,30.07,South,180,0.0,0.0,85,0.00,,---,0.00,VWS V14.00,2013-06-04 13:55:00,
2013-06-04 10:00:00,76.2,71.4,30.07,SSW,202,0.0,0.0,85,0.00,,---,0.00,VWS V14.00,2013-06-04 14:00:00,
2013-06-04 10:05:00,76.8,71.2,30.07,NNE,22,0.0,0.0,83,0.00,,---,0.00,VWS V14.00,2013-06-04 14:05:00,
2013-06-04 10:10:00,76.8,70.9,30.07,SW,225,3.3,3.3,82,0.00,,---,0.00,VWS V14.00,2013-06-04 14:10:00,
2013-06-04 10:15:00,77.0,71.1,30.07,NNE,22,0.0,3.3,82,0.00,,---,0.00,VWS V14.00,2013-06-04 14:15:00,
2013-06-04 10:20:00,76.1,69.8,30.07,ENE,68,0.0,3.3,81,0.00,,---,0.00,VWS V14.00,2013-06-04 14:20:00,
2013-06-04 10:25:00,75.7,69.1,30.07,ENE,68,0.0,0.0,80,0.00,,---,0.00,VWS V14.00,2013-06-04 14:25:00,
2013-06-04 10:30:00,75.0,68.8,30.07,NE,45,0.0,0.0,81,0.00,,---,0.00,VWS V14.00,2013-06-04 14:30:00,
2013-06-04 10:35:00,75.5,69.6,30.07,South,180,0.0,0.8,82,0.00,,---,0.00,VWS V14.00,2013-06-04 14:35:00,
2013-06-04 10:40:00,75.9,69.7,30.07,NE,45,0.0,0.8,81,0.00,,---,0.00,VWS V14.00,2013-06-04 14:40:00,
2013-06-04 10:45:00,76.6,70.0,30.06,NE,45,1.7,1.7,80,0.00,,---,0.00,VWS V14.00,2013-06-04 14:45:00,
2013-06-04 10:55:00,78.4,71.3,30.06,SE,135,0.0,0.0,79,0.00,,---,0.00,VWS V14.00,2013-06-04 14:55:00,
2013-06-04 11:00:00,78.4,71.3,30.06,NE,45,0.0,0.0,79,0.00,,---,0.00,VWS V14.00,2013-06-04 15:00:00,
2013-06-04 11:06:00,78.8,71.4,30.06,NE,45,0.0,0.0,78,0.00,,---,0.00,VWS V14.00,2013-06-04 15:06:00,
2013-06-04 11:11:00,79.1,71.7,30.06,SE,135,2.6,2.6,78,0.00,,---,0.00,VWS V14.00,2013-06-04 15:11:00,
2013-06-04 11:16:00,79.3,71.5,30.06,WSW,248,0.0,2.6,77,0.00,,---,0.00,VWS V14.00,2013-06-04 15:16:00,
2013-06-04 11:21:00,79.3,71.5,30.06,SE,135,0.0,0.0,77,0.00,,---,0.00,VWS V14.00,2013-06-04 15:21:00,
2013-06-04 11:26:00,79.3,71.1,30.06,ESE,112,0.0,0.0,76,0.00,,---,0.00,VWS V14.00,2013-06-04 15:26:00,
2013-06-04 11:31:00,78.9,70.7,30.06,SSE,158,0.0,0.0,76,0.00,,---,0.00,VWS V14.00,2013-06-04 15:31:00,
2013-06-04 11:36:00,78.8,70.6,30.06,NNE,22,0.0,1.7,76,0.00,,---,0.00,VWS V14.00,2013-06-04 15:36:00,
2013-06-04 11:41:00,79.3,70.7,30.06,NNE,22,0.0,0.0,75,0.00,,---,0.00,VWS V14.00,2013-06-04 15:41:00,
2013-06-04 11:46:00,80.2,71.9,30.06,SSW,202,0.0,4.6,76,0.00,,---,0.00,VWS V14.00,2013-06-04 15:46:00,
2013-06-04 11:51:00,81.1,71.6,30.06,ENE,68,0.0,0.0,73,0.00,,---,0.00,VWS V14.00,2013-06-04 15:51:00,
2013-06-04 11:56:00,81.8,72.3,30.06,West,270,0.0,4.6,73,0.00,,---,0.00,VWS V14.00,2013-06-04 15:56:00,
2013-06-04 12:01:00,82.2,71.9,30.06,SW,225,5.3,5.3,71,0.00,,---,0.00,VWS V14.00,2013-06-04 16:01:00,
2013-06-04 12:06:00,82.2,71.0,30.06,ENE,68,0.0,5.3,69,0.00,,---,0.00,VWS V14.00,2013-06-04 16:06:00,
2013-06-04 12:11:00,81.6,70.9,30.06,NNE,22,0.0,0.0,70,0.00,,---,0.00,VWS V14.00,2013-06-04 16:11:00,
2013-06-04 12:16:00,82.0,70.8,30.06,SE,135,0.0,0.0,69,0.00,,---,0.00,VWS V14.00,2013-06-04 16:16:00,
2013-06-04 12:21:00,82.9,72.1,30.06,North,0,0.0,0.0,70,0.00,,---,0.00,VWS V14.00,2013-06-04 16:21:00,
2013-06-04 12:26:00,83.4,72.2,30.06,ENE,68,0.0,0.0,69,0.00,,---,0.00,VWS V14.00,2013-06-04 16:26:00,
2013-06-04 12:31:00,82.9,70.8,30.06,North,0,0.0,0.0,67,0.00,,---,0.00,VWS V14.00,2013-06-04 16:31:00,
2013-06-04 12:37:00,81.3,70.2,30.06,SE,135,0.0,2.6,69,0.00,,---,0.00,VWS V14.00,2013-06-04 16:37:00,
2013-06-04 12:42:00,80.6,69.9,30.06,East,90,0.0,0.0,70,0.00,,---,0.00,VWS V14.00,2013-06-04 16:42:00,
2013-06-04 12:47:00,80.4,70.1,30.06,East,90,0.0,3.3,71,0.00,,---,0.00,VWS V14.00,2013-06-04 16:47:00,
2013-06-04 12:52:00,81.1,70.8,30.06,NNE,22,0.8,0.8,71,0.00,,---,0.00,VWS V14.00,2013-06-04 16:52:00,
2013-06-04 12:57:00,80.9,69.8,30.06,WSW,248,0.0,0.8,69,0.00,,---,0.00,VWS V14.00,2013-06-04 16:57:00,
2013-06-04 13:02:00,81.1,70.0,30.05,ENE,68,0.0,0.0,69,0.00,,---,0.00,VWS V14.00,2013-06-04 17:02:00,
2013-06-04 13:07:00,81.1,69.1,30.06,NE,45,0.0,0.0,67,0.00,,---,0.00,VWS V14.00,2013-06-04 17:07:00,
2013-06-04 13:12:00,80.4,68.4,30.06,NE,45,0.0,0.0,67,0.00,,---,0.00,VWS V14.00,2013-06-04 17:12:00,
2013-06-04 13:17:00,79.8,67.9,30.06,SSE,158,0.0,0.0,67,0.00,,---,0.00,VWS V14.00,2013-06-04 17:17:00,
2013-06-04 13:22:00,79.5,68.9,30.06,NE,45,0.0,0.0,70,0.00,,---,0.00,VWS V14.00,2013-06-04 17:22:00,
2013-06-04 13:27:00,79.8,69.2,30.06,NNE,22,0.0,0.0,70,0.00,,---,0.00,VWS V14.00,2013-06-04 17:27:00,
2013-06-04 13:32:00,80.4,69.7,30.06,SW,225,0.0,0.0,70,0.00,,---,0.00,VWS V14.00,2013-06-04 17:32:00,
2013-06-04 13:37:00,80.7,69.6,30.06,WSW,248,0.0,0.0,69,0.00,,---,0.00,VWS V14.00,2013-06-04 17:37:00,
2013-06-04 13:42:00,80.9,69.8,30.06,ENE,68,0.0,0.0,69,0.00,,---,0.00,VWS V14.00,2013-06-04 17:42:00,
2013-06-04 13:47:00,81.5,70.4,30.06,West,270,7.8,7.8,69,0.00,,---,0.00,VWS V14.00,2013-06-04 17:47:00,
2013-06-04 13:52:00,81.5,69.9,30.06,East,90,0.0,0.0,68,0.00,,---,0.00,VWS V14.00,2013-06-04 17:52:00,
2013-06-04 13:57:00,81.1,69.6,30.06,NNW,338,0.0,0.0,68,0.00,,---,0.00,VWS V14.00,2013-06-04 17:57:00,
2013-06-04 14:02:00,80.4,69.3,30.06,WSW,248,0.0,0.0,69,0.00,,---,0.00,VWS V14.00,2013-06-04 18:02:00,
2013-06-04 14:07:00,79.8,68.7,30.06,ESE,112,0.0,0.0,69,0.00,,---,0.00,VWS V14.00,2013-06-04 18:07:00,
2013-06-04 14:12:00,79.1,68.1,30.06,NNE,22,0.0,0.0,69,0.00,,---,0.00,VWS V14.00,2013-06-04 18:12:00,
2013-06-04 14:17:00,78.9,68.7,30.06,ENE,68,0.0,0.0,71,0.00,,---,0.00,VWS V14.00,2013-06-04 18:17:00,
2013-06-04 14:22:00,78.8,68.6,30.06,WSW,248,0.0,0.0,71,0.00,,---,0.00,VWS V14.00,2013-06-04 18:22:00,
2013-06-04 14:27:00,78.6,69.2,30.05,West,270,0.0,0.0,73,0.00,,---,0.00,VWS V14.00,2013-06-04 18:27:00,
2013-06-04 14:32:00,78.6,68.8,30.05,NNE,22,0.0,0.0,72,0.00,,---,0.00,VWS V14.00,2013-06-04 18:32:00,
2013-06-04 14:37:00,77.9,68.2,30.05,WSW,248,0.0,0.0,72,0.00,,---,0.00,VWS V14.00,2013-06-04 18:37:00,
2013-06-04 14:42:00,78.2,68.8,30.05,SE,135,0.0,0.0,73,0.00,,---,0.00,VWS V14.00,2013-06-04 18:42:00,
2013-06-04 14:47:00,78.6,69.6,30.04,West,270,3.1,3.1,74,0.00,,---,0.00,VWS V14.00,2013-06-04 18:47:00,
2013-06-04 14:52:00,78.6,68.8,30.04,NW,315,0.0,0.0,72,0.00,,---,0.00,VWS V14.00,2013-06-04 18:52:00,
2013-06-04 14:57:00,78.6,68.8,30.05,West,270,0.0,0.0,72,0.00,,---,0.00,VWS V14.00,2013-06-04 18:57:00,
2013-06-04 15:02:00,77.9,67.8,30.05,ESE,112,0.0,0.0,71,0.00,,---,0.00,VWS V14.00,2013-06-04 19:02:00,
2013-06-04 15:07:00,77.9,68.2,30.04,SE,135,1.5,5.5,72,0.00,,---,0.00,VWS V14.00,2013-06-04 19:07:00,
2013-06-04 15:12:00,78.4,69.0,30.04,ENE,68,0.0,0.0,73,0.00,,---,0.00,VWS V14.00,2013-06-04 19:12:00,
2013-06-04 15:17:00,78.4,68.6,30.04,SE,135,0.0,4.9,72,0.00,,---,0.00,VWS V14.00,2013-06-04 19:17:00,
2013-06-04 15:22:00,78.0,67.8,30.04,WSW,248,0.0,0.0,71,0.00,,---,0.00,VWS V14.00,2013-06-04 19:22:00,
2013-06-04 15:27:00,77.5,67.8,30.04,ENE,68,0.0,0.0,72,0.00,,---,0.00,VWS V14.00,2013-06-04 19:27:00,
2013-06-04 15:32:00,77.1,67.8,30.04,WSW,248,0.0,0.0,73,0.00,,---,0.00,VWS V14.00,2013-06-04 19:32:00,
2013-06-04 15:37:00,77.1,68.2,30.04,SW,225,0.0,5.1,74,0.00,,---,0.00,VWS V14.00,2013-06-04 19:37:00,
2013-06-04 15:42:00,77.1,67.8,30.04,NNE,22,0.0,0.0,73,0.00,,---,0.00,VWS V14.00,2013-06-04 19:42:00,
2013-06-04 15:47:00,77.5,68.2,30.04,SE,135,5.3,5.3,73,0.00,,---,0.00,VWS V14.00,2013-06-04 19:47:00,
2013-06-04 15:52:00,77.5,68.2,30.04,SSE,158,0.0,0.0,73,0.00,,---,0.00,VWS V14.00,2013-06-04 19:52:00,
2013-06-04 15:57:00,77.5,68.6,30.04,West,270,0.0,0.0,74,0.00,,---,0.00,VWS V14.00,2013-06-04 19:57:00,
2013-06-04 16:02:00,77.5,68.6,30.04,SSW,202,0.0,0.0,74,0.00,,---,0.00,VWS V14.00,2013-06-04 20:02:00,
2013-06-04 16:07:00,77.5,68.6,30.04,NNE,22,0.0,0.0,74,0.00,,---,0.00,VWS V14.00,2013-06-04 20:07:00,
2013-06-04 16:12:00,77.5,68.6,30.05,SW,225,0.0,0.0,74,0.00,,---,0.00,VWS V14.00,2013-06-04 20:12:00,
2013-06-04 16:17:00,77.5,68.2,30.05,ESE,112,0.0,1.1,73,0.00,,---,0.00,VWS V14.00,2013-06-04 20:17:00,
2013-06-04 16:22:00,77.7,68.8,30.05,WSW,248,0.0,6.2,74,0.00,,---,0.00,VWS V14.00,2013-06-04 20:22:00,
2013-06-04 16:27:00,78.4,69.4,30.04,SE,135,0.0,6.2,74,0.00,,---,0.00,VWS V14.00,2013-06-04 20:27:00,
2013-06-04 16:32:00,78.4,69.4,30.04,NW,315,0.0,0.0,74,0.00,,---,0.00,VWS V14.00,2013-06-04 20:32:00,
2013-06-04 16:37:00,78.2,68.8,30.04,SW,225,4.9,4.9,73,0.00,,---,0.00,VWS V14.00,2013-06-04 20:37:00,
2013-06-04 16:42:00,77.5,68.6,30.04,East,90,0.0,0.0,74,0.00,,---,0.00,VWS V14.00,2013-06-04 20:42:00,
2013-06-04 16:47:00,77.1,68.2,30.04,SW,225,0.0,0.0,74,0.00,,---,0.00,VWS V14.00,2013-06-04 20:47:00,
2013-06-04 16:53:00,76.8,68.3,30.04,SE,135,0.0,0.0,75,0.00,,---,0.00,VWS V14.00,2013-06-04 20:53:00,
2013-06-04 16:58:00,76.8,68.7,30.04,ESE,112,0.6,0.6,76,0.00,,---,0.00,VWS V14.00,2013-06-04 20:58:00,
2013-06-04 17:03:00,77.0,68.5,30.04,WSW,248,6.7,6.7,75,0.00,,---,0.00,VWS V14.00,2013-06-04 21:03:00,
2013-06-04 17:08:00,76.8,68.3,30.04,SE,135,0.0,6.7,75,0.00,,---,0.00,VWS V14.00,2013-06-04 21:08:00,
2013-06-04 17:13:00,76.6,68.5,30.04,WNW,292,0.0,5.8,76,0.00,,---,0.00,VWS V14.00,2013-06-04 21:13:00,
2013-06-04 17:18:00,76.4,68.3,30.03,SE,135,0.0,5.8,76,0.00,,---,0.00,VWS V14.00,2013-06-04 21:18:00,
2013-06-04 17:23:00,76.2,68.1,30.03,ESE,112,1.1,1.1,76,0.00,,---,0.00,VWS V14.00,2013-06-04 21:23:00,
2013-06-04 17:28:00,76.1,68.0,30.03,NE,45,0.0,1.1,76,0.00,,---,0.00,VWS V14.00,2013-06-04 21:28:00,
2013-06-04 17:33:00,75.9,68.2,30.04,West,270,0.0,0.0,77,0.00,,---,0.00,VWS V14.00,2013-06-04 21:33:00,
2013-06-04 17:38:00,75.9,68.2,30.04,NW,315,0.0,0.0,77,0.00,,---,0.00,VWS V14.00,2013-06-04 21:38:00,
2013-06-04 17:43:00,75.5,67.8,30.04,WNW,292,1.7,1.7,77,0.00,,---,0.00,VWS V14.00,2013-06-04 21:43:00,
2013-06-04 17:48:00,75.3,67.6,30.04,WSW,248,0.0,1.7,77,0.00,,---,0.00,VWS V14.00,2013-06-04 21:48:00,
2013-06-04 17:53:00,75.0,67.3,30.04,North,0,0.0,1.3,77,0.00,,---,0.00,VWS V14.00,2013-06-04 21:53:00,
2013-06-04 17:58:00,75.0,67.3,30.04,NW,315,0.0,1.3,77,0.00,,---,0.00,VWS V14.00,2013-06-04 21:58:00,
2013-06-04 18:03:00,75.0,67.3,30.03,SSE,158,6.2,6.2,77,0.00,,---,0.00,VWS V14.00,2013-06-04 22:03:00,
2013-06-04 18:08:00,74.8,67.5,30.03,WSW,248,0.2,6.2,78,0.00,,---,0.00,VWS V14.00,2013-06-04 22:08:00,
2013-06-04 18:13:00,74.8,67.5,30.04,SW,225,4.2,4.2,78,0.00,,---,0.00,VWS V14.00,2013-06-04 22:13:00,
2013-06-04 18:18:00,74.8,67.5,30.04,SW,225,8.9,8.9,78,0.00,,---,0.00,VWS V14.00,2013-06-04 22:18:00,
2013-06-04 18:23:00,74.8,67.5,30.04,WSW,248,0.0,0.0,78,0.00,,---,0.00,VWS V14.00,2013-06-04 22:23:00,
2013-06-04 18:28:00,75.0,68.1,30.04,West,270,0.0,0.0,79,0.00,,---,0.00,VWS V14.00,2013-06-04 22:28:00,
2013-06-04 18:33:00,75.0,68.1,30.04,West,270,0.0,0.0,79,0.00,,---,0.00,VWS V14.00,2013-06-04 22:33:00,
2013-06-04 18:38:00,75.3,68.0,30.04,West,270,0.0,0.0,78,0.00,,---,0.00,VWS V14.00,2013-06-04 22:38:00,
2013-06-04 18:43:00,75.3,68.0,30.04,SE,135,0.0,0.0,78,0.00,,---,0.00,VWS V14.00,2013-06-04 22:43:00,
2013-06-04 18:48:00,75.0,67.7,30.04,WSW,248,0.0,0.0,78,0.00,,---,0.00,VWS V14.00,2013-06-04 22:48:00,
2013-06-04 18:53:00,74.8,67.5,30.04,SW,225,0.0,0.0,78,0.00,,---,0.00,VWS V14.00,2013-06-04 22:53:00,
2013-06-04 18:58:00,74.4,67.1,30.04,WNW,292,0.0,0.0,78,0.00,,---,0.00,VWS V14.00,2013-06-04 22:58:00,
2013-06-04 19:03:00,74.4,67.1,30.04,West,270,2.9,2.9,78,0.00,,---,0.00,VWS V14.00,2013-06-04 23:03:00,
2013-06-04 19:08:00,74.3,67.0,30.04,West,270,4.9,4.9,78,0.00,,---,0.00,VWS V14.00,2013-06-04 23:08:00,
2013-06-04 19:13:00,73.9,67.0,30.04,ESE,112,0.0,0.0,79,0.00,,---,0.00,VWS V14.00,2013-06-04 23:13:00,
2013-06-04 19:18:00,73.7,66.8,30.04,WNW,292,0.0,0.0,79,0.00,,---,0.00,VWS V14.00,2013-06-04 23:18:00,
2013-06-04 19:23:00,73.2,66.7,30.04,WSW,248,0.0,0.0,80,0.00,,---,0.00,VWS V14.00,2013-06-04 23:23:00,
2013-06-04 19:28:00,73.0,66.5,30.04,SW,225,0.0,0.0,80,0.00,,---,0.00,VWS V14.00,2013-06-04 23:28:00,
2013-06-04 19:33:00,72.8,66.6,30.04,West,270,0.0,0.0,81,0.00,,---,0.00,VWS V14.00,2013-06-04 23:33:00,
2013-06-04 19:38:00,72.5,66.7,30.04,WSW,248,0.0,0.0,82,0.00,,---,0.00,VWS V14.00,2013-06-04 23:38:00,
2013-06-04 19:43:00,72.3,66.5,30.05,NNW,338,0.0,0.0,82,0.00,,---,0.00,VWS V14.00,2013-06-04 23:43:00,
2013-06-04 19:48:00,72.1,66.3,30.05,SW,225,0.0,0.0,82,0.00,,---,0.00,VWS V14.00,2013-06-04 23:48:00,
2013-06-04 19:53:00,72.1,66.3,30.05,WSW,248,0.0,0.0,82,0.00,,---,0.00,VWS V14.00,2013-06-04 23:53:00,
2013-06-04 19:58:00,71.7,66.3,30.05,South,180,0.0,0.0,83,0.00,,---,0.00,VWS V14.00,2013-06-04 23:58:00,
2013-06-04 20:03:00,71.9,66.5,30.05,SW,225,0.0,0.0,83,0.00,,---,0.00,VWS V14.00,2013-06-05 00:03:00,
2013-06-04 20:08:00,71.9,66.5,30.06,South,180,0.0,0.0,83,0.00,,---,0.00,VWS V14.00,2013-06-05 00:08:00,
2013-06-04 20:13:00,71.7,66.3,30.06,WSW,248,0.0,0.0,83,0.00,,---,0.00,VWS V14.00,2013-06-05 00:13:00,
2013-06-04 20:18:00,71.7,66.3,30.06,SW,225,0.0,0.0,83,0.00,,---,0.00,VWS V14.00,2013-06-05 00:18:00,
2013-06-04 20:23:00,71.6,66.5,30.06,SSW,202,0.0,0.0,84,0.00,,---,0.00,VWS V14.00,2013-06-05 00:23:00,
2013-06-04 20:29:00,71.4,66.3,30.06,SSE,158,0.0,0.0,84,0.00,,---,0.00,VWS V14.00,2013-06-05 00:29:00,
2013-06-04 20:34:00,71.4,66.7,30.06,West,270,0.0,0.0,85,0.00,,---,0.00,VWS V14.00,2013-06-05 00:34:00,
2013-06-04 20:39:00,71.2,66.5,30.07,ENE,68,0.0,0.0,85,0.00,,---,0.00,VWS V14.00,2013-06-05 00:39:00,
2013-06-04 20:44:00,71.2,66.5,30.07,WNW,292,0.0,0.0,85,0.00,,---,0.00,VWS V14.00,2013-06-05 00:44:00,
2013-06-04 20:49:00,70.8,66.1,30.07,SW,225,0.0,0.0,85,0.00,,---,0.00,VWS V14.00,2013-06-05 00:49:00,
2013-06-04 20:54:00,70.8,66.1,30.07,SW,225,0.0,0.0,85,0.00,,---,0.00,VWS V14.00,2013-06-05 00:54:00,
2013-06-04 20:59:00,70.7,66.0,30.07,SW,225,0.0,0.0,85,0.00,,---,0.00,VWS V14.00,2013-06-05 00:59:00,
2013-06-04 21:04:00,70.5,65.8,30.07,SW,225,0.0,0.0,85,0.00,,---,0.00,VWS V14.00,2013-06-05 01:04:00,
2013-06-04 21:09:00,70.3,65.6,30.07,SW,225,0.0,0.0,85,0.00,,---,0.00,VWS V14.00,2013-06-05 01:09:00,
2013-06-04 21:14:00,70.3,65.9,30.07,SW,225,0.0,0.0,86,0.00,,---,0.00,VWS V14.00,2013-06-05 01:14:00,
2013-06-04 21:19:00,70.1,65.7,30.08,SW,225,0.0,0.0,86,0.00,,---,0.00,VWS V14.00,2013-06-05 01:19:00,
2013-06-04 21:24:00,69.9,65.5,30.08,SW,225,0.0,0.0,86,0.00,,---,0.00,VWS V14.00,2013-06-05 01:24:00,
2013-06-04 21:29:00,69.8,65.8,30.08,SW,225,0.0,0.0,87,0.00,,---,0.00,VWS V14.00,2013-06-05 01:29:00,
2013-06-04 21:34:00,69.6,65.6,30.08,WSW,248,0.0,0.0,87,0.00,,---,0.00,VWS V14.00,2013-06-05 01:34:00,
2013-06-04 21:39:00,69.4,65.4,30.08,WSW,248,0.0,0.0,87,0.00,,---,0.00,VWS V14.00,2013-06-05 01:39:00,
2013-06-04 21:44:00,69.2,65.2,30.09,WSW,248,0.0,0.0,87,0.00,,---,0.00,VWS V14.00,2013-06-05 01:44:00,
2013-06-04 21:49:00,69.0,65.3,30.08,WSW,248,0.0,0.0,88,0.00,,---,0.00,VWS V14.00,2013-06-05 01:49:00,
2013-06-04 21:54:00,68.9,65.2,30.08,SW,225,0.0,0.0,88,0.00,,---,0.00,VWS V14.00,2013-06-05 01:54:00,
2013-06-04 21:59:00,68.9,65.2,30.08,SW,225,0.0,0.0,88,0.00,,---,0.00,VWS V14.00,2013-06-05 01:59:00,
2013-06-04 22:04:00,68.7,65.3,30.09,SW,225,0.0,0.0,89,0.00,,---,0.00,VWS V14.00,2013-06-05 02:04:00,
2013-06-04 22:09:00,68.7,65.3,30.09,SW,225,0.0,0.0,89,0.00,,---,0.00,VWS V14.00,2013-06-05 02:09:00,
2013-06-04 22:14:00,68.5,65.1,30.09,SW,225,0.0,0.0,89,0.00,,---,0.00,VWS V14.00,2013-06-05 02:14:00,
2013-06-04 22:19:00,68.5,65.1,30.10,WSW,248,0.0,0.0,89,0.00,,---,0.00,VWS V14.00,2013-06-05 02:19:00,
2013-06-04 22:24:00,68.3,64.9,30.10,WSW,248,0.0,0.0,89,0.00,,---,0.00,VWS V14.00,2013-06-05 02:24:00,
2013-06-04 22:29:00,68.3,64.9,30.10,WSW,248,0.0,0.0,89,0.00,,---,0.00,VWS V14.00,2013-06-05 02:29:00,
2013-06-04 22:34:00,68.3,64.9,30.10,WSW,248,0.0,0.0,89,0.00,,---,0.00,VWS V14.00,2013-06-05 02:34:00,
2013-06-04 22:39:00,68.3,65.3,30.10,WSW,248,0.0,0.0,90,0.00,,---,0.00,VWS V14.00,2013-06-05 02:39:00,
2013-06-04 22:44:00,68.3,65.3,30.10,WSW,248,0.0,0.0,90,0.00,,---,0.00,VWS V14.00,2013-06-05 02:44:00,
2013-06-04 22:49:00,68.3,65.3,30.10,WSW,248,0.0,0.0,90,0.00,,---,0.00,VWS V14.00,2013-06-05 02:49:00,
2013-06-04 22:54:00,68.3,65.3,30.10,WSW,248,0.0,0.0,90,0.00,,---,0.00,VWS V14.00,2013-06-05 02:54:00,
2013-06-04 22:59:00,68.3,65.3,30.10,WSW,248,0.0,0.0,90,0.00,,---,0.00,VWS V14.00,2013-06-05 02:59:00,
2013-06-04 23:04:00,68.3,65.3,30.10,WSW,248,0.0,0.0,90,0.00,,---,0.00,VWS V14.00,2013-06-05 03:04:00,
2013-06-04 23:09:00,68.3,65.3,30.10,NE,45,0.0,0.0,90,0.00,,---,0.00,VWS V14.00,2013-06-05 03:09:00,
2013-06-04 23:14:00,68.3,65.3,30.10,ENE,68,0.0,0.0,90,0.00,,---,0.00,VWS V14.00,2013-06-05 03:14:00,
2013-06-04 23:19:00,68.3,65.3,30.10,WSW,248,0.0,0.0,90,0.00,,---,0.00,VWS V14.00,2013-06-05 03:19:00,
2013-06-04 23:24:00,68.3,65.3,30.10,ESE,112,0.0,0.0,90,0.00,,---,0.00,VWS V14.00,2013-06-05 03:24:00,
2013-06-04 23:29:00,68.1,65.1,30.10,SW,225,0.0,0.0,90,0.00,,---,0.00,VWS V14.00,2013-06-05 03:29:00,
2013-06-04 23:34:00,68.1,65.1,30.10,SW,225,0.0,0.0,90,0.00,,---,0.00,VWS V14.00,2013-06-05 03:34:00,
2013-06-04 23:40:00,68.1,65.1,30.10,SW,225,0.0,0.0,90,0.00,,---,0.00,VWS V14.00,2013-06-05 03:40:00,
2013-06-04 23:45:00,67.8,64.8,30.10,SW,225,0.0,0.0,90,0.00,,---,0.00,VWS V14.00,2013-06-05 03:45:00,
2013-06-04 23:50:00,67.6,64.9,30.10,SW,225,0.0,0.0,91,0.00,,---,0.00,VWS V14.00,2013-06-05 03:50:00,
2013-06-04 23:55:00,67.2,64.5,30.10,SW,225,0.0,0.0,91,0.00,,---,0.00,VWS V14.00,2013-06-05 03:55:00,